CDT,Max TemperatureF,Mean TemperatureF,Min TemperatureF,Max Dew PointF,MeanDew PointF,Min DewpointF,Max Humidity, Mean Humidity, Min Humidity, Max Sea Level PressureIn, Mean Sea Level PressureIn, Min Sea Level PressureIn, Max VisibilityMiles, Mean VisibilityMiles, Min VisibilityMiles, Max Wind SpeedMPH, Mean Wind SpeedMPH, Max Gust SpeedMPH,PrecipitationIn, CloudCover, Events, WindDirDegrees
2012-10-1,80,70,60,61,56,50,94,67,34,29.84,29.79,29.75,10,10,10,16,8,23,0.00,0,,307
2012-10-2,73,66,60,61,56,54,94,72,50,29.97,29.91,29.84,10,10,10,10,7,,0.00,0,,318
2012-10-3,80,68,57,59,56,52,94,70,37,30.09,30.02,29.97,10,10,10,12,3,18,0.00,0,,137
2012-10-4,86,72,59,63,59,57,100,71,40,30.20,30.13,30.08,10,10,5,13,4,18,0.00,0,,126
2012-10-5,87,73,59,70,63,54,100,79,48,30.12,30.07,29.98,10,10,10,16,6,21,0.00,2,,200
2012-10-6,59,52,46,55,46,36,100,77,62,30.27,30.18,30.10,10,10,7,16,9,23,0.00,7,,24
2012-10-7,55,50,44,48,42,37,100,76,51,30.32,30.26,30.19,10,10,5,9,5,,0.10,3,,9
2012-10-8,62,52,41,50,45,41,100,80,48,30.29,30.21,30.13,10,8,0,7,2,,0.00,3,,109
2012-10-9,73,58,42,63,54,43,100,85,64,30.14,30.04,29.92,10,10,10,15,4,21,0.00,4,,131
2012-10-10,69,64,60,64,61,59,100,84,68,30.21,30.13,30.03,10,10,7,13,5,20,0.00,5,,56
2012-10-11,82,72,62,70,65,59,100,84,62,30.21,30.16,30.10,10,10,7,10,5,,0.00,3,,127
2012-10-12,80,73,64,70,66,63,100,83,65,30.23,30.17,30.14,10,10,7,12,3,,0.00,1,,121
2012-10-13,86,74,62,70,66,63,100,77,48,30.13,30.02,29.87,10,9,3,20,8,30,0.00,3,,143
2012-10-14,80,70,59,70,60,54,100,73,39,30.09,30.01,29.90,10,9,2,28,10,34,1.15,1,,250
2012-10-15,78,63,48,57,52,46,100,74,32,30.12,30.06,30.00,10,10,1,5,0,,0.00,0,,156
2012-10-16,69,60,50,59,55,50,100,85,60,30.02,29.88,29.75,10,10,7,13,3,,0.03,1,,144
2012-10-17,82,70,59,68,61,52,100,76,42,29.77,29.67,29.56,10,10,10,21,9,31,0.00,3,,199
2012-10-18,73,60,48,52,40,28,93,47,20,30.00,29.93,29.79,10,10,10,18,7,24,0.00,0,,307
2012-10-19,75,60,46,45,36,32,93,45,21,30.01,29.95,29.89,10,10,10,18,6,25,0.00,0,,270
2012-10-20,82,62,42,59,50,41,100,69,36,29.95,29.88,29.82,10,10,10,17,4,22,0.00,0,,148
2012-10-21,86,74,62,70,66,57,94,78,55,29.97,29.92,29.86,10,10,4,20,8,25,0.00,4,,138
2012-10-22,82,75,68,70,68,64,100,82,62,30.06,30.00,29.95,10,10,10,15,9,23,0.00,4,,148
2012-10-23,82,73,64,68,64,63,100,78,51,30.05,29.99,29.94,10,10,3,15,7,22,0.00,3,,154
2012-10-24,80,71,62,68,65,61,100,84,58,30.06,29.98,29.90,10,9,4,15,5,17,0.00,2,,138
2012-10-25,82,68,53,70,63,48,100,81,58,30.06,29.93,29.87,10,10,10,16,9,25,0.00,4,,202
2012-10-26,53,48,44,48,45,37,100,81,62,30.30,30.19,30.06,10,10,2,15,11,22,0.35,6,,338
2012-10-27,57,47,37,37,34,32,87,65,38,30.33,30.24,30.16,10,10,2,12,8,17,0.00,0,,342
2012-10-28,60,46,32,37,33,28,100,64,29,30.30,30.24,30.20,10,10,3,13,4,16,0.00,0,,333
2012-10-29,64,48,32,41,34,32,100,70,30,30.35,30.26,30.17,10,8,0,9,1,,0.00,0,,73
2012-10-30,71,52,33,46,41,34,100,68,33,30.16,30.06,29.97,10,9,0,10,2,,0.00,0,,220
2012-10-31,78,60,42,54,48,43,100,72,32,30.02,29.99,29.97,10,10,5,9,3,,0.00,0,,168